Home > Weather > Buenos Aires > Past weeks

Flag for Argentina Past Weather in Buenos Aires, Argentina — Yesterday and Last 2 Weeks

Now
57 °F

Clear.


Feels Like: 55 °F
Forecast: N/A
Wind: 9 mph from Southeast

Location: Buenos Aires Airport

Current Time: Aug 29, 2016 at 8:40:08 PM

Latest Report: Aug 29, 2016 at 8:00 PM


Visibility: 10 mi

Pressure: 30.18 "Hg

Humidity: 72%

Dew Point: 48 °F

Location of Buenos AiresLocation

Past Weather in Buenos Aires — Graph

°F

Buenos Aires Temperature Yesterday

Maximum temperature yesterday: 55 °F (at 5:00 PM)
Minimum temperature yesterday: 48 °F (at 4:00 AM)
Average temperature yesterday: 51 °F

High & Low Weather Summary for the Past Weeks

 TemperatureHumidityPressure
High72 °F (Aug 22, 4:00 PM)94% (Aug 20, 6:00 AM)30.51 "Hg (Aug 20, 6:00 AM)
Low41 °F (Aug 21, 4:00 AM)21% (Aug 18, 3:00 PM)29.59 "Hg (Aug 16, 4:00 PM)
Average58 °F63%30.03 "Hg
* Reported Aug 14 7:00 PM — Aug 29 7:00 PM, Buenos Aires, Weather by CustomWeather, © 2016

Note: Actual official high and low records may vary slightly from our data, if they occured in-between our weather recording intervals... More about our weather records

Advertising

Buenos Aires Weather History for the Previous 24 Hours

Scroll right to see more
 ConditionsComfort  
Time TempWeatherWind HumidityBarometerVisibility
7:00 PM
Mon, Aug 29
55 °FPartly cloudy.12 mph82%30.18 "HgN/A
6:00 PM57 °FPassing clouds.14 mph77%30.21 "HgN/A
5:00 PM57 °FScattered clouds.10 mph82%30.21 "HgN/A
4:00 PM57 °FPassing clouds.13 mph82%30.21 "HgN/A
3:00 PM57 °FBroken clouds.10 mph88%30.24 "HgN/A
2:00 PM59 °FScattered clouds.12 mph82%30.24 "HgN/A
1:00 PM59 °FScattered clouds.14 mph77%30.27 "HgN/A
12:00 PM59 °FScattered clouds.9 mph68%30.27 "HgN/A
11:00 AM57 °FPartly sunny.9 mph77%30.30 "HgN/A
10:00 AM55 °FBroken clouds.6 mph82%30.30 "HgN/A
9:00 AM54 °FPartly sunny.9 mph88%30.30 "Hg6 mi
8:00 AM52 °FBroken clouds.9 mph88%30.27 "Hg6 mi
7:00 AM52 °FPartly sunny.6 mph88%30.27 "Hg4 mi
6:00 AM52 °FFog.6 mph88%30.27 "Hg3 mi
5:00 AM52 °FFog.7 mph88%30.24 "Hg2 mi
4:00 AM50 °FFog.6 mph94%30.24 "Hg2 mi
3:45 AM50 °FFog.6 mph94%30.24 "Hg3 mi
3:00 AM50 °FOvercast.6 mph88%30.27 "Hg4 mi
2:00 AM52 °FOvercast.6 mph88%30.27 "Hg4 mi
1:00 AM50 °FOvercast.6 mph88%30.27 "Hg5 mi
12:00 AM50 °FPassing clouds.8 mph88%30.24 "Hg5 mi
11:00 PM
Sun, Aug 28
52 °FPassing clouds.9 mph82%30.24 "Hg6 mi
10:00 PM52 °FPassing clouds.13 mph77%30.24 "HgN/A
9:00 PM54 °FClear.12 mph72%30.21 "Hg10 mi
8:00 PM54 °FPassing clouds.6 mph72%30.21 "HgN/A
Weather by CustomWeather, © 2016

See weather overviewHow to use our weather pages